SL-16 R/B (19650 NORAD) Tracking and Keplerian Element Data

This shows tracking and keplerian element data for the satellite.

Feedback or suggestion? Click here.




ElementValue
Catalog19650
NameSL-16 R/B
Epoch Orbit81552
Epoch Day12.97810224
Epoch Year2024
RAAN6.5479
Inclination71.0001
Eccentricity0.0012395
Argument of Perigee135.9455
Mean Anonmoly224.2658
Mean Motion14.15935717
Decay Rate-2.06E-06
L11 19650U 88102B 24012.97810224 -.00000206 00000+0 -80217-4 0 9993
L22 19650 71.0001 6.5479 0012395 135.9455 224.2658 14.15935717815528



Live tracking and technical data element details for SL-16 R/B (NORAD 19650). SL-16 R/B can be tracked NOW for your location showing map with azimuth and elevation plus other details from your city location.







IsCatalogInMostPopularTable: catalog: 19650, numindb: 362
Update: records affected: 1



GetName: 19650 SL-16 R/B

Hit Count: updated at: Fri, 19 Apr 2024 12:03:44 GMT